Lamoni, IA

1:01 AM CST on February 25, 2017 (GMT -0600)
Lamoni Municipal

Weather History for KLWD - November, 2011

Change the Weather History Date:

Thursday, November 10, 2011

  Actual Average Record
Temperature  
Mean Temperature 35 °F 42 °F  
Max Temperature 41 °F 52 °F 73 °F (2012)
Min Temperature 28 °F 33 °F 16 °F (1979)
Degree Days  
Heating Degree Days 30 22  
Month to date heating degree days 195 203  
Since 1 July heating degree days 671 687  
Moisture  
Dew Point 21 °F    
Average Humidity 60    
Maximum Humidity 75    
Minimum Humidity 45    
Precipitation  
Precipitation 0.00 in 0.08 in 1.05 in (1968)
Month to date precipitation 3.37 1.00  
Year to date precipitation 32.49  
Sea Level Pressure  
Sea Level Pressure 30.20 in    
Wind  
Wind Speed 12 mph (West)    
Max Wind Speed 23 mph    
Max Gust Speed 29 mph    
Visibility 10 miles    
Events      
T = Trace of Precipitation, MM = Missing Value Source: NWS Daily Summary

Daily Weather History Graph

Daily Weather History Graph

Search for Another Location

Airport or City:

Trip Planner

Search our weather history database for the weather conditions in past years. The results will help you decide how hot, cold, wet, or windy it might be!

Date:

Astronomy

Nov. 10, 2011 Rise Set
Actual Time 6:56 AM CST 5:02 PM CST
Civil Twilight 6:27 AM CST 5:31 PM CST
Nautical Twilight 5:54 AM CST 6:04 PM CST
Astronomical Twilight 5:22 AM CST 6:36 PM CST
Moon 4:50 PM CST (11/10) 6:49 AM CST (11/10)
Length of Visible Light 11h 04m
Length of Day
10h 06m
Full, 100% of the Moon is Illuminated
Nov 10
Full
Nov 10
Full
Nov 18
Last Quarter
Nov 25
New
Dec 2
First Quarter

Hourly Weather History & Observations

Time (CST) Temp. Windchill Dew Point Humidity Pressure Visibility Wind Dir Wind Speed Gust Speed Precip Events Conditions
12:53 AM 32.0 °F 22.5 °F 23.0 °F 69% 30.23 in 10.0 mi WNW 12.7 mph - N/A   Clear
1:53 AM 30.0 °F 21.7 °F 23.0 °F 75% 30.22 in 10.0 mi West 9.2 mph - N/A   Clear
2:53 AM 30.0 °F 21.7 °F 21.9 °F 72% 30.22 in 10.0 mi West 9.2 mph - N/A   Clear
4:53 AM 30.0 °F 19.5 °F 21.9 °F 72% 30.21 in 10.0 mi West 13.8 mph - N/A   Clear
5:53 AM 28.9 °F 19.2 °F 21.0 °F 72% 30.21 in 10.0 mi West 11.5 mph - N/A   Clear
7:53 AM 30.0 °F 18.7 °F 21.0 °F 69% 30.25 in 10.0 mi WNW 16.1 mph - N/A   Clear
8:53 AM 32.0 °F 19.5 °F 21.0 °F 64% 30.27 in 10.0 mi WNW 21.9 mph 27.6 mph N/A   Clear
9:53 AM 34.0 °F 22.1 °F 23.0 °F 64% 30.26 in 10.0 mi WNW 21.9 mph 28.8 mph N/A   Clear
10:53 AM 37.0 °F 26.7 °F 24.1 °F 59% 30.26 in 10.0 mi WNW 19.6 mph 24.2 mph N/A   Clear
11:53 AM 37.9 °F 28.5 °F 24.1 °F 57% 30.25 in 10.0 mi West 17.3 mph - N/A   Clear
12:53 PM 39.9 °F 31.8 °F 24.1 °F 53% 30.23 in 10.0 mi WNW 15.0 mph 21.9 mph N/A   Clear
1:53 PM 39.9 °F 31.1 °F 23.0 °F 51% 30.22 in 10.0 mi West 17.3 mph - N/A   Clear
4:53 PM 35.1 °F 28.6 °F 23.0 °F 61% 30.20 in 10.0 mi West 8.1 mph - N/A   Clear
5:53 PM 34.0 °F 28.8 °F 19.9 °F 56% 30.18 in 10.0 mi WSW 5.8 mph - N/A   Clear
6:53 PM 34.0 °F 29.8 °F 19.0 °F 54% 30.16 in 10.0 mi SW 4.6 mph - N/A   Clear
7:53 PM 33.1 °F 27.7 °F 18.0 °F 54% 30.15 in 10.0 mi SW 5.8 mph - N/A   Clear
8:53 PM 30.9 °F 25.2 °F 18.0 °F 59% 30.15 in 10.0 mi SSW 5.8 mph - N/A   Clear
9:53 PM 30.9 °F 24.3 °F 17.1 °F 57% 30.15 in 10.0 mi SSW 6.9 mph - N/A   Clear
10:53 PM 30.0 °F 23.2 °F 17.1 °F 59% 30.12 in 10.0 mi SSW 6.9 mph - N/A   Clear
11:53 PM 30.0 °F 21.7 °F 18.0 °F 61% 30.09 in 10.0 mi South 9.2 mph - N/A   Clear